This is the latest recevied weather packets stored in our database for station/object N5TDX. If no packets are shown the sender has not sent any weather packets the latest 10 day(s).
| Time | Temp. | Humidity | Pressure | Rain* | Wind** | Luminosity | Snow |
|---|---|---|---|---|---|---|---|
| 1788366765 | 36.67° C | 38% | 1013.1 hPa | 0 mm | - | - | - |
| 1788366463 | 35.56° C | 40% | 1013.2 hPa | 0 mm | - | - | - |
| 1788366158 | 35.56° C | 40% | 1013.2 hPa | 0 mm | - | - | - |
| 1788365853 | 35° C | 42% | 1013.3 hPa | 0 mm | - | - | - |
| 1788365549 | 34.44° C | 43% | 1013.3 hPa | 0 mm | - | - | - |
| 1788365246 | 35° C | 44% | 1013.3 hPa | 0 mm | - | - | - |
| 1788364946 | 34.44° C | 45% | 1013.2 hPa | 0 mm | - | - | - |
| 1788364653 | 33.89° C | 48% | 1013.3 hPa | 0 mm | - | - | - |
| 1788364343 | 33.89° C | 46% | 1013.3 hPa | 0 mm | - | - | - |
| 1788364038 | 33.89° C | 47% | 1013.2 hPa | 0 mm | - | - | - |
| 1788363739 | 33.89° C | 47% | 1013.3 hPa | 0 mm | - | - | - |
| 1788363438 | 33.89° C | 46% | 1013.3 hPa | 0 mm | - | - | - |
| 1788363133 | 33.89° C | 47% | 1013.3 hPa | 0 mm | - | - | - |
| 1788362829 | 33.89° C | 48% | 1013.5 hPa | 0 mm | - | - | - |
| 1788362524 | 33.89° C | 48% | 1013.6 hPa | 0 mm | - | - | - |
| 1788362220 | 33.33° C | 48% | 1013.4 hPa | 0 mm | - | - | - |
| 1788361919 | 33.33° C | 49% | 1013.2 hPa | 0 mm | - | - | - |
| 1788361614 | 32.78° C | 51% | 1013 hPa | 0 mm | - | - | - |
| 1788361310 | 32.78° C | 52% | 1013.3 hPa | 0 mm | - | - | - |
| 1788361009 | 32.78° C | 51% | 1013.4 hPa | 0 mm | - | - | - |
| 1788360709 | 32.22° C | 53% | 1013.4 hPa | 0 mm | - | - | - |
| 1788360425 | 31.67° C | 54% | 1013.3 hPa | 0 mm | - | - | - |
| 1788360102 | 31.11° C | 55% | 1013.5 hPa | 0 mm | - | - | - |
| 1788359801 | 31.11° C | 55% | 1013.3 hPa | 0 mm | - | - | - |
| 1788359497 | 31.11° C | 56% | 1013.3 hPa | 0 mm | - | - | - |
* Rain latest hour (hover to see other rain measurements)
** Current wind speed in m/s (hover to see current wind gust speed)